When you browse on this site, cookies collect data to enhance your experience and personalize the content and advertising you see.
Visit our Privacy Policy to learn more. By continuing to use the site, you agree to this use of cookies and data.
  • In Lithuania
  • List of Countries
  • For 7 days
  • Water Temperature
  • Satellite Maps
  • Weather Map
  • Weather Widgets
  • user-avatar
    Login

    Hourly Weather Wien

    Today, 19 June, Wednesday

    Time Temperature Precipitation Wind Pressure Humidity
    00:00 +22°C° 0 mm 1 mps 742 mmHg 79%
    01:00 +21°C° 0 mm 1 mps 742 mmHg 81%
    02:00 +21°C° 0 mm 1 mps 742 mmHg 82%
    03:00 +20°C° 0 mm 1 mps 742 mmHg 84%
    04:00 +20°C° 0 mm 1 mps 742 mmHg 85%
    05:00 +21°C° 0 mm 1 mps 742 mmHg 81%
    06:00 +22°C° 0 mm 1 mps 742 mmHg 78%
    07:00 +24°C° 0 mm 1 mps 742 mmHg 74%
    08:00 +25°C° 0 mm 1 mps 742 mmHg 68%
    09:00 +27°C° 0 mm 1 mps 741 mmHg 62%
    10:00 +28°C° 0 mm 1 mps 741 mmHg 57%
    11:00 +29°C° 0 mm 2 mps 741 mmHg 53%
    12:00 +30°C° 0 mm 2 mps 741 mmHg 49%
    13:00 +31°C° 0 mm 2 mps 741 mmHg 45%
    14:00 +31°C° 0 mm 2 mps 740 mmHg 47%
    15:00 +31°C° 0 mm 3 mps 740 mmHg 48%
    16:00 +31°C° 0 mm 3 mps 740 mmHg 49%
    17:00 +29°C° 0.2 mm 3 mps 740 mmHg 55%
    18:00 +28°C° 0.2 mm 2 mps 740 mmHg 61%
    19:00 +26°C° 0.2 mm 2 mps 740 mmHg 67%
    20:00 +25°C° 0.4 mm 2 mps 740 mmHg 69%
    21:00 +24°C° 0.4 mm 1 mps 740 mmHg 71%
    22:00 +23°C° 0.4 mm 1 mps 740 mmHg 73%
    23:00 +22°C° 0.1 mm 1 mps 740 mmHg 72%

    Tomorrow, 20 June, Thursday

    Time Temperature Precipitation Wind Pressure Humidity
    00:00 +22°C° 0.1 mm 1 mps 740 mmHg 71%
    01:00 +21°C° 0.1 mm 1 mps 740 mmHg 70%
    02:00 +21°C° 0 mm 1 mps 740 mmHg 71%
    03:00 +20°C° 0 mm 1 mps 740 mmHg 71%
    04:00 +20°C° 0 mm 1 mps 740 mmHg 72%
    05:00 +21°C° 0 mm 1 mps 740 mmHg 68%
    06:00 +23°C° 0 mm 1 mps 740 mmHg 65%
    07:00 +24°C° 0 mm 1 mps 740 mmHg 62%
    08:00 +26°C° 0 mm 1 mps 740 mmHg 57%
    09:00 +27°C° 0 mm 1 mps 740 mmHg 52%
    10:00 +29°C° 0 mm 1 mps 740 mmHg 47%
    11:00 +30°C° 0 mm 1 mps 740 mmHg 44%
    12:00 +31°C° 0 mm 1 mps 740 mmHg 41%
    13:00 +32°C° 0 mm 2 mps 740 mmHg 38%
    14:00 +32°C° 0 mm 2 mps 739 mmHg 39%
    15:00 +32°C° 0 mm 2 mps 739 mmHg 39%
    16:00 +32°C° 0 mm 2 mps 739 mmHg 40%
    17:00 +30°C° 0 mm 2 mps 739 mmHg 45%
    18:00 +29°C° 0 mm 2 mps 739 mmHg 50%
    19:00 +28°C° 0 mm 1 mps 740 mmHg 55%
    20:00 +26°C° 0.6 mm 3 mps 740 mmHg 64%
    21:00 +22°C° 0.6 mm 4 mps 741 mmHg 73%
    22:00 +20°C° 0.6 mm 6 mps 741 mmHg 83%
    23:00 +20°C° 0.8 mm 5 mps 741 mmHg 83%

    Day after tomorrow, 21 June, Friday

    Time Temperature Precipitation Wind Pressure Humidity
    00:00 +20°C° 0.8 mm 5 mps 742 mmHg 84%
    01:00 +19°C° 0.8 mm 4 mps 742 mmHg 85%
    02:00 +19°C° 0.3 mm 4 mps 742 mmHg 85%
    03:00 +19°C° 0.3 mm 4 mps 742 mmHg 84%
    04:00 +19°C° 0.3 mm 4 mps 742 mmHg 84%
    05:00 +20°C° 0 mm 4 mps 742 mmHg 81%
    06:00 +20°C° 0 mm 4 mps 742 mmHg 78%
    07:00 +21°C° 0 mm 4 mps 743 mmHg 75%
    08:00 +23°C° 0 mm 4 mps 743 mmHg 69%
    09:00 +25°C° 0 mm 4 mps 743 mmHg 64%
    10:00 +26°C° 0 mm 4 mps 743 mmHg 58%
    11:00 +27°C° 0 mm 4 mps 743 mmHg 56%
    12:00 +28°C° 0 mm 4 mps 743 mmHg 53%
    13:00 +29°C° 0 mm 4 mps 742 mmHg 51%
    14:00 +29°C° 0.4 mm 4 mps 742 mmHg 54%
    15:00 +28°C° 0.4 mm 4 mps 742 mmHg 56%
    16:00 +28°C° 0.4 mm 4 mps 742 mmHg 59%
    17:00 +27°C° 0.2 mm 3 mps 742 mmHg 63%
    18:00 +26°C° 0.2 mm 3 mps 742 mmHg 67%
    19:00 +25°C° 0.2 mm 3 mps 742 mmHg 71%
    20:00 +24°C° 0.1 mm 2 mps 742 mmHg 74%
    21:00 +23°C° 0.1 mm 2 mps 742 mmHg 77%
    22:00 +21°C° 0.1 mm 2 mps 743 mmHg 80%
    23:00 +20°C° 0 mm 2 mps 742 mmHg 80%

    22 June, Saturday

    Time Temperature Precipitation Wind Pressure Humidity
    00:00 +20°C° 0 mm 2 mps 742 mmHg 81%
    01:00 +20°C° 0 mm 2 mps 742 mmHg 81%
    02:00 +19°C° 0 mm 2 mps 742 mmHg 82%
    03:00 +19°C° 0 mm 2 mps 742 mmHg 82%
    04:00 +19°C° 0 mm 2 mps 742 mmHg 83%
    05:00 +19°C° 0 mm 2 mps 742 mmHg 81%
    06:00 +20°C° 0 mm 2 mps 743 mmHg 78%
    07:00 +21°C° 0 mm 3 mps 743 mmHg 76%
    08:00 +22°C° 0 mm 3 mps 743 mmHg 72%
    09:00 +25°C° 0 mm 3 mps 743 mmHg 67%
    10:00 +26°C° 0 mm 4 mps 742 mmHg 63%
    11:00 +26°C° 0 mm 4 mps 742 mmHg 62%
    12:00 +27°C° 0 mm 4 mps 742 mmHg 61%
    13:00 +28°C° 0 mm 3 mps 742 mmHg 59%
    14:00 +28°C° 0.1 mm 3 mps 741 mmHg 61%
    15:00 +28°C° 0.1 mm 3 mps 741 mmHg 63%
    16:00 +27°C° 0.1 mm 3 mps 741 mmHg 64%
    17:00 +26°C° 3.1 mm 2 mps 741 mmHg 70%
    18:00 +24°C° 3.1 mm 2 mps 740 mmHg 75%
    19:00 +23°C° 3.1 mm 1 mps 740 mmHg 80%
    20:00 +22°C° 0.4 mm 1 mps 741 mmHg 82%
    21:00 +21°C° 0.4 mm 2 mps 741 mmHg 84%
    22:00 +20°C° 0.4 mm 2 mps 741 mmHg 85%
    23:00 +20°C° 0.1 mm 2 mps 741 mmHg 86%

    23 June, Sunday

    Time Temperature Precipitation Wind Pressure Humidity
    00:00 +20°C° 0.1 mm 3 mps 741 mmHg 86%
    01:00 +19°C° 0.1 mm 3 mps 742 mmHg 86%
    02:00 +19°C° 0 mm 4 mps 742 mmHg 87%
    03:00 +19°C° 0 mm 4 mps 742 mmHg 88%
    04:00 +18°C° 0 mm 4 mps 742 mmHg 89%
    05:00 +19°C° 0 mm 5 mps 742 mmHg 86%
    06:00 +20°C° 0 mm 5 mps 743 mmHg 83%
    07:00 +21°C° 0 mm 5 mps 743 mmHg 80%
    08:00 +22°C° 0.1 mm 5 mps 743 mmHg 76%
    09:00 +23°C° 0.1 mm 5 mps 743 mmHg 72%
    10:00 +23°C° 0.1 mm 5 mps 744 mmHg 68%
    11:00 +25°C° 0.2 mm 5 mps 744 mmHg 63%
    12:00 +26°C° 0.2 mm 5 mps 744 mmHg 59%
    13:00 +27°C° 0.2 mm 5 mps 744 mmHg 55%
    14:00 +27°C° 0.1 mm 5 mps 744 mmHg 54%
    15:00 +27°C° 0.1 mm 5 mps 744 mmHg 53%
    16:00 +28°C° 0.1 mm 4 mps 744 mmHg 53%
    17:00 +26°C° 0.1 mm 4 mps 744 mmHg 60%
    18:00 +25°C° 0.1 mm 4 mps 745 mmHg 67%
    19:00 +22°C° 0.1 mm 3 mps 745 mmHg 74%
    20:00 +21°C° 0.1 mm 3 mps 746 mmHg 76%
    21:00 +20°C° 0.1 mm 3 mps 746 mmHg 78%
    22:00 +18°C° 0.1 mm 2 mps 747 mmHg 80%
    23:00 +18°C° 0 mm 2 mps 747 mmHg 80%

    24 June, Monday

    Time Temperature Precipitation Wind Pressure Humidity
    00:00 +18°C° 0 mm 2 mps 747 mmHg 80%
    01:00 +17°C° 0 mm 2 mps 748 mmHg 80%
    02:00 +16°C° 0 mm 2 mps 748 mmHg 82%
    03:00 +16°C° 0 mm 2 mps 748 mmHg 83%
    04:00 +15°C° 0 mm 2 mps 748 mmHg 85%
    05:00 +16°C° 0 mm 2 mps 748 mmHg 79%
    06:00 +17°C° 0 mm 2 mps 748 mmHg 74%
    07:00 +18°C° 0 mm 2 mps 749 mmHg 68%
    08:00 +19°C° 0 mm 3 mps 749 mmHg 62%
    09:00 +21°C° 0 mm 3 mps 749 mmHg 56%
    10:00 +22°C° 0 mm 3 mps 749 mmHg 50%
    11:00 +24°C° 0 mm 3 mps 749 mmHg 48%
    12:00 +25°C° 0 mm 3 mps 749 mmHg 47%
    13:00 +26°C° 0 mm 3 mps 749 mmHg 45%
    14:00 +26°C° 0 mm 3 mps 749 mmHg 45%
    15:00 +26°C° 0 mm 3 mps 749 mmHg 46%
    16:00 +26°C° 0 mm 3 mps 748 mmHg 46%
    17:00 +25°C° 0 mm 2 mps 749 mmHg 52%
    18:00 +24°C° 0 mm 2 mps 749 mmHg 57%
    19:00 +23°C° 0 mm 1 mps 749 mmHg 62%
    20:00 +22°C° 0 mm 1 mps 749 mmHg 66%
    21:00 +21°C° 0 mm 1 mps 750 mmHg 69%
    22:00 +20°C° 0 mm 1 mps 750 mmHg 72%
    23:00 +19°C° 0 mm 1 mps 750 mmHg 71%
    Show more